Time,TemperatureF,DewpointF,PressureIn,WindDirection,WindDirectionDegrees,WindSpeedMPH,WindSpeedGustMPH,Humidity,HourlyPrecipIn,Conditions,Clouds,dailyrainin,SoftwareType,DateUTC
2013-08-05 00:02:00,70.3,63.5,29.95,East,79,0.0,0.0,79,0.00,,SCT090,0.00,VWS V14.00,2013-08-05 04:02:00,
2013-08-05 00:17:00,69.9,63.1,29.95,East,79,0.0,0.0,79,0.00,,SCT090,0.00,VWS V14.00,2013-08-05 04:17:00,
2013-08-05 00:32:00,69.9,63.1,29.95,East,79,0.0,0.0,79,0.00,,SCT090,0.00,VWS V14.00,2013-08-05 04:32:00,
2013-08-05 00:47:00,69.9,63.1,29.95,East,79,0.0,0.0,79,0.00,,SCT090,0.00,VWS V14.00,2013-08-05 04:47:00,
2013-08-05 01:02:00,69.8,63.7,29.95,East,79,0.0,0.0,81,0.00,,BKN070,0.00,VWS V14.00,2013-08-05 05:02:00,
2013-08-05 01:17:00,69.8,63.7,29.95,East,79,0.0,0.0,81,0.00,,BKN070,0.00,VWS V14.00,2013-08-05 05:17:00,
2013-08-05 01:32:00,69.4,64.0,29.95,East,79,0.0,0.0,83,0.00,,BKN070,0.00,VWS V14.00,2013-08-05 05:32:00,
2013-08-05 01:47:00,69.1,64.1,29.95,East,79,0.0,0.0,84,0.00,,BKN070,0.00,VWS V14.00,2013-08-05 05:47:00,
2013-08-05 02:02:00,69.1,64.1,29.96,East,79,0.0,0.0,84,0.00,,SCT065,0.00,VWS V14.00,2013-08-05 06:02:00,
2013-08-05 02:17:00,69.3,64.3,29.96,East,79,0.0,0.0,84,0.00,,SCT065,0.00,VWS V14.00,2013-08-05 06:17:00,
2013-08-05 02:32:00,69.1,64.4,29.95,East,79,0.0,0.0,85,0.00,,SCT065,0.00,VWS V14.00,2013-08-05 06:32:00,
2013-08-05 02:47:00,68.9,64.6,29.96,East,79,0.0,0.0,86,0.00,,SCT065,0.00,VWS V14.00,2013-08-05 06:47:00,
2013-08-05 03:02:00,68.8,64.4,29.95,East,79,0.0,0.0,86,0.00,,BKN250,0.00,VWS V14.00,2013-08-05 07:02:00,
2013-08-05 03:17:00,68.4,64.1,29.95,East,80,0.0,0.0,86,0.00,,BKN250,0.00,VWS V14.00,2013-08-05 07:17:00,
2013-08-05 03:32:00,68.3,63.6,29.95,East,80,0.0,1.0,85,0.00,,BKN250,0.00,VWS V14.00,2013-08-05 07:32:00,
2013-08-05 03:47:00,67.9,62.9,29.95,East,79,0.0,0.0,84,0.00,,BKN250,0.00,VWS V14.00,2013-08-05 07:47:00,
2013-08-05 04:02:00,67.8,62.8,29.95,East,79,0.0,0.0,84,0.00,,BKN250,0.00,VWS V14.00,2013-08-05 08:02:00,
2013-08-05 04:17:00,67.4,62.4,29.95,East,80,0.0,0.0,84,0.00,,BKN250,0.00,VWS V14.00,2013-08-05 08:17:00,
2013-08-05 04:32:00,67.1,62.1,29.95,East,79,0.0,0.0,84,0.00,,BKN250,0.00,VWS V14.00,2013-08-05 08:32:00,
2013-08-05 04:47:00,66.8,61.8,29.95,East,79,0.0,0.0,84,0.00,,BKN250,0.00,VWS V14.00,2013-08-05 08:47:00,
2013-08-05 05:02:00,66.4,61.4,29.95,East,79,0.0,0.0,84,0.00,,BKN250,0.00,VWS V14.00,2013-08-05 09:02:00,
2013-08-05 05:17:00,66.0,61.4,29.95,East,80,0.0,0.0,85,0.00,,BKN250,0.00,VWS V14.00,2013-08-05 09:17:00,
2013-08-05 05:32:00,65.6,61.3,29.95,East,79,0.0,0.0,86,0.00,,BKN250,0.00,VWS V14.00,2013-08-05 09:32:00,
2013-08-05 06:02:00,65.0,61.4,29.96,East,79,0.0,0.0,88,0.00,,BKN250,0.00,VWS V14.00,2013-08-05 10:02:00,
2013-08-05 06:32:00,64.7,61.1,29.97,East,79,0.0,0.0,88,0.00,,BKN250,0.00,VWS V14.00,2013-08-05 10:32:00,
2013-08-05 07:02:00,65.3,62.3,29.98,East,79,0.0,0.0,90,0.00,,BKN250,0.00,VWS V14.00,2013-08-05 11:02:00,
2013-08-05 07:17:00,65.6,62.6,29.99,East,79,0.0,0.0,90,0.00,,BKN250,0.00,VWS V14.00,2013-08-05 11:17:00,
2013-08-05 07:47:00,67.1,63.8,29.99,East,80,0.0,0.0,89,0.00,,BKN250,0.00,VWS V14.00,2013-08-05 11:47:00,
2013-08-05 08:01:00,67.9,63.9,30.00,East,79,0.0,0.0,87,0.00,,BKN250,0.00,VWS V14.00,2013-08-05 12:01:00,
2013-08-05 08:17:00,68.9,63.9,30.01,East,79,0.0,1.0,84,0.00,,BKN250,0.00,VWS V14.00,2013-08-05 12:17:00,
2013-08-05 08:32:00,70.6,63.8,30.00,East,80,1.0,1.0,79,0.00,,BKN250,0.00,VWS V14.00,2013-08-05 12:32:00,
2013-08-05 09:02:00,73.5,63.9,29.99,East,79,0.0,3.0,72,0.00,,BKN250,0.00,VWS V14.00,2013-08-05 13:02:00,
2013-08-05 09:17:00,74.4,64.0,29.99,East,80,0.0,3.0,70,0.00,,BKN250,0.00,VWS V14.00,2013-08-05 13:17:00,
2013-08-05 09:32:00,74.6,65.0,30.00,East,80,1.0,2.0,72,0.00,,BKN250,0.00,VWS V14.00,2013-08-05 13:32:00,
2013-08-05 09:47:00,74.7,64.7,30.00,East,79,0.0,3.0,71,0.00,,BKN250,0.00,VWS V14.00,2013-08-05 13:47:00,
2013-08-05 10:02:00,75.4,64.1,30.00,East,82,0.0,2.0,68,0.00,,BKN085,0.00,VWS V14.00,2013-08-05 14:02:00,
2013-08-05 10:17:00,76.3,65.8,30.00,East,83,0.0,3.0,70,0.00,,BKN085,0.00,VWS V14.00,2013-08-05 14:17:00,
2013-08-05 10:32:00,77.2,65.0,30.00,East,93,1.0,2.0,66,0.00,,BKN085,0.00,VWS V14.00,2013-08-05 14:32:00,
2013-08-05 11:02:00,79.2,66.4,30.00,ENE,76,0.0,3.0,65,0.00,,OVC085,0.00,VWS V14.00,2013-08-05 15:02:00,
2013-08-05 11:17:00,77.7,65.4,30.01,East,90,0.0,3.0,66,0.00,,OVC085,0.00,VWS V14.00,2013-08-05 15:17:00,
2013-08-05 11:32:00,78.3,66.0,30.00,East,89,0.0,5.0,66,0.00,,OVC085,0.00,VWS V14.00,2013-08-05 15:32:00,
2013-08-05 11:47:00,79.9,66.7,30.00,East,79,0.0,6.0,64,0.00,,OVC085,0.00,VWS V14.00,2013-08-05 15:47:00,
2013-08-05 12:02:00,79.9,66.7,30.00,East,79,1.0,3.0,64,0.00,,BKN250,0.00,VWS V14.00,2013-08-05 16:02:00,
2013-08-05 12:32:00,77.4,63.4,30.00,ENE,78,0.0,2.0,62,0.00,,BKN250,0.00,VWS V14.00,2013-08-05 16:32:00,
2013-08-05 13:01:00,79.6,65.4,29.98,East,95,0.0,3.0,62,0.00,,BKN080,0.00,VWS V14.00,2013-08-05 17:01:00,
2013-08-05 13:16:00,77.0,63.9,29.99,East,85,0.0,3.0,64,0.00,,BKN080,0.00,VWS V14.00,2013-08-05 17:16:00,
2013-08-05 13:47:00,77.9,66.1,29.97,East,86,0.0,5.0,67,0.00,,BKN080,0.00,VWS V14.00,2013-08-05 17:47:00,
2013-08-05 14:02:00,79.6,64.0,29.97,North,0,0.0,6.0,59,0.00,,BKN065,0.00,VWS V14.00,2013-08-05 18:02:00,
2013-08-05 14:17:00,80.7,66.5,29.96,East,100,0.0,7.0,62,0.00,,BKN065,0.00,VWS V14.00,2013-08-05 18:17:00,
2013-08-05 14:32:00,81.4,65.7,29.95,East,83,0.0,4.0,59,0.00,,BKN065,0.00,VWS V14.00,2013-08-05 18:32:00,
2013-08-05 14:47:00,80.3,66.1,29.95,East,83,0.0,3.0,62,0.00,,BKN065,0.00,VWS V14.00,2013-08-05 18:47:00,
2013-08-05 15:02:00,80.7,65.5,29.94,East,82,2.0,5.0,60,0.00,,BKN250,0.00,VWS V14.00,2013-08-05 19:02:00,
2013-08-05 15:17:00,80.9,65.7,29.94,NNW,344,0.0,4.0,60,0.00,,BKN250,0.00,VWS V14.00,2013-08-05 19:17:00,
2013-08-05 15:32:00,81.1,66.9,29.94,East,80,0.0,5.0,62,0.00,,BKN250,0.00,VWS V14.00,2013-08-05 19:32:00,
2013-08-05 15:47:00,80.5,66.3,29.93,East,85,0.0,6.0,62,0.00,,BKN250,0.00,VWS V14.00,2013-08-05 19:47:00,
2013-08-05 16:02:00,80.7,66.5,29.93,ENE,71,1.0,4.0,62,0.00,,BKN060,0.00,VWS V14.00,2013-08-05 20:02:00,
2013-08-05 16:17:00,81.4,66.2,29.93,ENE,66,0.0,5.0,60,0.00,,BKN060,0.00,VWS V14.00,2013-08-05 20:17:00,
2013-08-05 16:32:00,81.1,67.3,29.93,ENE,64,1.0,2.0,63,0.00,,BKN060,0.00,VWS V14.00,2013-08-05 20:32:00,
2013-08-05 16:47:00,81.2,67.9,29.93,ESE,102,1.0,6.0,64,0.00,,BKN060,0.00,VWS V14.00,2013-08-05 20:47:00,
2013-08-05 17:02:00,81.4,65.7,29.92,NE,41,0.0,8.0,59,0.00,,BKN080,0.00,VWS V14.00,2013-08-05 21:02:00,
2013-08-05 17:17:00,81.2,66.0,29.92,NE,45,0.0,5.0,60,0.00,,BKN080,0.00,VWS V14.00,2013-08-05 21:17:00,
2013-08-05 17:32:00,82.0,67.2,29.92,NNE,18,0.0,3.0,61,0.00,,BKN080,0.00,VWS V14.00,2013-08-05 21:32:00,
2013-08-05 17:47:00,82.0,66.3,29.92,NE,40,2.0,2.0,59,0.00,,BKN080,0.00,VWS V14.00,2013-08-05 21:47:00,
2013-08-05 18:02:00,80.9,66.2,29.92,NE,41,0.0,4.0,61,0.00,,BKN080,0.00,VWS V14.00,2013-08-05 22:02:00,
2013-08-05 18:17:00,80.7,66.0,29.92,ENE,75,0.0,3.0,61,0.00,,BKN080,0.00,VWS V14.00,2013-08-05 22:17:00,
2013-08-05 18:32:00,80.5,66.3,29.91,ENE,76,0.0,1.0,62,0.00,,BKN080,0.00,VWS V14.00,2013-08-05 22:32:00,
2013-08-05 19:02:00,78.6,65.9,29.91,ENE,66,0.0,2.0,65,0.00,,BKN200,0.00,VWS V14.00,2013-08-05 23:02:00,
2013-08-05 19:17:00,77.7,67.1,29.92,ENE,64,0.0,2.0,70,0.00,,BKN200,0.00,VWS V14.00,2013-08-05 23:17:00,
2013-08-05 19:32:00,77.0,67.3,29.92,ENE,64,0.0,1.0,72,0.00,,BKN200,0.00,VWS V14.00,2013-08-05 23:32:00,
2013-08-05 19:47:00,76.5,66.8,29.93,ENE,64,0.0,0.0,72,0.00,,BKN200,0.00,VWS V14.00,2013-08-05 23:47:00,
2013-08-05 20:02:00,76.0,67.1,29.93,ENE,64,0.0,0.0,74,0.00,,SCT200,0.00,VWS V14.00,2013-08-06 00:02:00,
2013-08-05 20:17:00,75.6,66.7,29.92,ENE,64,0.0,0.0,74,0.00,,SCT200,0.00,VWS V14.00,2013-08-06 00:17:00,
2013-08-05 20:32:00,75.1,66.6,29.92,ENE,64,0.0,0.0,75,0.00,,BKN250,0.00,VWS V14.00,2013-08-06 00:32:00,
2013-08-05 20:47:00,74.6,66.2,29.92,ENE,64,0.0,0.0,75,0.00,,BKN250,0.00,VWS V14.00,2013-08-06 00:47:00,
2013-08-05 21:02:00,74.6,66.2,29.93,ENE,64,0.0,0.0,75,0.00,,BKN250,0.00,VWS V14.00,2013-08-06 01:02:00,
2013-08-05 21:17:00,74.6,66.2,29.93,ENE,64,0.0,0.0,75,0.00,,BKN250,0.00,VWS V14.00,2013-08-06 01:17:00,
2013-08-05 21:47:00,73.5,65.5,29.93,ENE,64,0.0,0.0,76,0.00,,BKN250,0.00,VWS V14.00,2013-08-06 01:47:00,
2013-08-05 22:02:00,73.5,65.5,29.93,ENE,64,0.0,0.0,76,0.00,,BKN250,0.00,VWS V14.00,2013-08-06 02:02:00,
2013-08-05 22:17:00,73.5,65.5,29.93,ENE,64,0.0,0.0,76,0.00,,BKN250,0.00,VWS V14.00,2013-08-06 02:17:00,
2013-08-05 22:47:00,73.5,65.5,29.92,ENE,64,0.0,0.0,76,0.00,,BKN250,0.00,VWS V14.00,2013-08-06 02:47:00,
2013-08-05 23:02:00,73.5,65.5,29.92,ENE,64,0.0,0.0,76,0.00,,BKN200,0.00,VWS V14.00,2013-08-06 03:02:00,
2013-08-05 23:32:00,73.5,65.5,29.91,ENE,64,0.0,0.0,76,0.00,,BKN200,0.00,VWS V14.00,2013-08-06 03:32:00,
2013-08-05 23:47:00,72.5,64.5,29.92,ENE,76,0.0,0.0,76,0.00,,BKN200,0.00,VWS V14.00,2013-08-06 03:47:00,